287P/Christensen (2023)

Japanese version
Home page
Updated on August 27, 2023

---------------------------------------------------------------------

* Profile

* Pictures

* Orbital Elements

Epoch 2023 Feb. 25.0 TT = JDT 2460000.5
T 2023 July 6.05362 TT                                  Rudenko
q   3.0342278            (2000.0)            P               Q
n   0.11601399     Peri.  189.11988     +0.84536248     +0.50142557
a   4.1635374      Node   139.04284     -0.47068740     +0.86224986
e   0.2712380      Incl.   16.32169     -0.25261761     +0.07139729
P   8.50
>From 282 observations 2006 Aug. 30-2023 May 25, mean residual 0".8.
     Nongravitational parameters A1 = -4.35, A2 = +0.1879.

* Finding Charts

* Magnitudes Graph

        m1 = 8.5 + 5 log d + 16.0 log r

---------------------------------------------------------------------

The orbital elements are published on M.P.E.C. 2023-L37.
The charts are made with StellaNavigator Ver.10 (AstroArts).
The magnitudes graphs are made with Comet for Windows.

---------------------------------------------------------------------

Copyright(C) Seiichi Yoshida (comet@aerith.net). All rights reserved.